Regional Weather Roundup
Issued by NWS

Home | Current Version | Previous Version | Graphics & Text | Print | Product List | Glossary On
Versions: 1 2 3 4 5 6 7 8 9 10 11 12 13 14 15 16 17 18 19 20 21 22 23 24 25 26 27 28 29 30 31 32 33 34 35 36 37 38 39 40 41 42 43 44 45 46 47 48 49 50
000
ASUS45 KABQ 051510
RWRNM
NEW MEXICO REGIONAL WEATHER ROUNDUP
NATIONAL WEATHER SERVICE ALBUQUERQUE NM
900 AM MDT THU MAY 05 2016

NOTE: "FAIR" MEANS FEW OR NO CLOUDS BELOW 12,000 FEET AGL WITH NO
       SIGNIFICANT WEATHER OR OBSTRUCTIONS TO VISION.

      THIS PRODUCT IS RELEASED AS TWO VERSIONS.  ONE VERSION NEAR
      THE TOP OF THE HOUR CONTAINING PRELIMINARY DATA FROM ALBUQUERQUE
      AND OTHER STATIONS.  A FINAL VERSION WITH ADDITIONAL DATA IS
      ISSUED ABOUT 10 MINUTES AFTER THE HOUR.

NMZ501-503-504-510>518-051600-
NORTHWEST PLATEAU/NORTHCENTRAL MOUNTAINS

CITY           SKY/WX    TMP DP  RH WIND       PRES   REMARKS
FARMINGTON     FAIR      62  27  26 E13       30.17F
LOS ALAMOS     FAIR      57 -15   5 E3        30.32S
SANTA FE       FAIR      63  24  22 N8        30.26F
TAOS           FAIR      55  28  35 CALM      30.32F
ANGEL FIRE     FAIR      44  29  54 CALM      30.38F

$$
NMZ402-403-502-505>509-051600-
WESTCENTRAL MOUNTAINS/SOUTHWEST MOUNTAINS

CITY           SKY/WX    TMP DP  RH WIND       PRES   REMARKS
GALLUP         FAIR      63  33  32 NE5       30.20F
GRANTS         FAIR      62  29  28 SE10      30.26F
SILVER CITY      N/A     70  21  16 SE20      30.20F

$$
NMZ407-409-411-412-051600-
SOUTHERN DESERTS

CITY           SKY/WX    TMP DP  RH WIND       PRES   REMARKS
LORDSBURG      FAIR      72  23  16 E25G31    30.09R
DEMING         FAIR      70  23  17 E16       30.14R
LAS CRUCES     FAIR      70  22  16 E9        30.17R
HOLLOMAN AFB   FAIR      70  21  15 VRB1      30.16S
ALAMOGORDO     FAIR      68  21  17 N6        30.18S
T OR C         FAIR      68  24  19 CALM      30.18R

$$
NMZ519>523-051600-
CENTRAL VALLEYS/CENTRAL HIGHLANDS

CITY           SKY/WX    TMP DP  RH WIND       PRES   REMARKS
ALBUQUERQUE    FAIR      61  27  27 NW5       30.22S
DOUBLE EAGLE   SUNNY     63  27  25 NE5       30.25S
MORIARTY ARPT  FAIR      60  20  21 CALM      30.28F
CLINES CORNERS FAIR      63  20  19 W10       30.29R
BELEN          FAIR      63  25  23 NE3       30.22S
SOCORRO        FAIR      61  24  24 CALM      30.20S

$$
NMZ524>526-539-540-051600-
SOUTHCENTRAL MOUNTAINS

CITY           SKY/WX    TMP DP  RH WIND       PRES   REMARKS
RUIDOSO          N/A     59  23  25 NE5       30.32S

$$
NMZ527>531-051600-
NORTHEAST HIGHLANDS/NORTHEAST PLAINS

CITY           SKY/WX    TMP DP  RH WIND       PRES   REMARKS
LAS VEGAS      FAIR      63  30  28 VRB3      30.28S
RATON          FAIR      56  31  38 SE3       30.24S
CLAYTON        FAIR      70  36  28 SW9       30.16S

$$
NMZ532>537-051600-
EASTCENTRAL PLAINS

CITY           SKY/WX    TMP DP  RH WIND       PRES   REMARKS
TUCUMCARI      FAIR      69  32  25 S3        30.15F
CANNON AFB     NOT AVBL
CLOVIS AIRPORT FAIR      70  36  28 W10       30.19S

$$
NMZ028-029-538-051600-
SOUTHEAST PLAINS

CITY           SKY/WX    TMP DP  RH WIND       PRES   REMARKS
ROSWELL        FAIR      66  32  28 CALM      30.17R
ARTESIA        FAIR      66  28  24 CALM      30.17S
CARLSBAD       FAIR      66  28  24 N5        30.15S
HOBBS          SUNNY     73  28  19 S7        30.19R


$$



USA.gov is the U.S. government's official web portal to all federal, state and local government web resources and services.